Location: Houston
(29.7630°N, 95.3630°W)
Time: 12:03:29
(UTC-05:00)

ISS - All Passes

Search period start: 30 August 2016 00:00
Search period end: 09 September 2016 00:00
Orbit: 402 x 406 km, 51.6° (Epoch: 30 August)

Date Brightness Start Highest point End Pass type
(mag) Time Alt. Az. Time Alt. Az. Time Alt. Az.
30 Aug - 07:13:56 10° SSW 07:17:02 42° SE 07:20:10 10° ENE daylight
30 Aug - 08:51:51 10° WNW 08:53:39 14° NW 08:55:27 10° N daylight
30 Aug - 15:22:39 10° NNW 15:25:41 34° NE 15:28:42 10° ESE daylight
30 Aug - 17:00:14 10° W 17:01:53 13° SW 17:03:31 10° SSW daylight
31 Aug - 06:22:24 10° S 06:24:45 18° SE 06:27:06 10° E visible
31 Aug - 07:58:16 10° W 08:01:03 25° NW 08:03:52 10° NNE daylight
31 Aug - 14:30:49 10° N 14:33:08 18° NE 14:35:27 10° E daylight
31 Aug - 16:06:43 10° WNW 16:09:37 29° SW 16:12:30 10° SSE daylight
01 Sep - 07:05:21 10° SW 07:08:34 55° NW 07:11:47 10° NE daylight
01 Sep - 15:14:00 10° NW 15:17:17 74° SW 15:20:31 10° SE daylight
02 Sep - 06:12:57 10° SSW 06:16:09 58° SE 06:19:22 10° NE visible
02 Sep - 07:51:42 10° NW 07:52:52 11° NW 07:54:02 10° NNW daylight
02 Sep - 14:21:40 10° NNW 14:24:51 44° NE 14:27:59 10° ESE daylight
03 Sep - 05:21:08 10° S 05:23:49 24° SE 05:26:31 10° ENE visible
03 Sep - 06:57:40 10° W 07:00:13 21° NW 07:02:46 10° NNE daylight
03 Sep - 13:29:41 10° NNW 13:32:18 22° NE 13:34:55 10° E daylight
03 Sep - 15:06:03 10° WNW 15:08:41 22° SW 15:11:18 10° S daylight
04 Sep - 04:30:43 10° SE 04:31:33 11° SE 04:32:23 10° ESE visible
04 Sep - 06:04:34 10° WSW 06:07:40 41° NW 06:10:49 10° NNE visible
04 Sep - 12:38:18 10° N 12:39:40 12° NE 12:41:01 10° ENE daylight
04 Sep - 14:13:08 10° NW 14:16:21 53° SW 14:19:32 10° SSE daylight
05 Sep - 05:11:58 10° SW 05:15:13 80° SE 05:18:29 10° NE visible
05 Sep - 13:20:41 10° NW 13:23:56 60° NE 13:27:09 10° SE daylight
06 Sep - 04:19:55 10° SSW 04:22:51 31° SE 04:25:48 10° ENE visible
06 Sep - 05:57:08 10° W 05:59:21 17° NW 06:01:35 10° N visible
06 Sep - 12:28:34 10° NNW 12:31:25 27° NE 12:34:16 10° ESE daylight
06 Sep - 14:05:27 10° W 14:07:42 17° SW 14:09:56 10° S daylight
07 Sep - 03:28:45 10° SSE 03:30:33 14° SE 03:32:22 10° E night (unlit)
07 Sep - 05:03:47 10° WSW 05:06:46 32° NW 05:09:45 10° NNE visible
07 Sep - 11:36:53 10° N 11:38:48 15° NE 11:40:43 10° ENE daylight
07 Sep - 13:12:18 10° WNW 13:15:23 39° SW 13:18:27 10° SSE daylight
08 Sep - 04:11:01 10° SW 04:14:16 76° NW 04:17:32 10° NE visible
08 Sep - 12:19:41 10° NW 12:22:59 81° NE 12:26:14 10° SE daylight
